TimePST,TemperatureF,Dew PointF,Humidity,Sea Level PressureIn,VisibilityMPH,Wind Direction,Wind SpeedMPH,Gust SpeedMPH,PrecipitationIn,Events,Conditions,WindDirDegrees,DateUTC
12:52 AM,51.1,46.9,86,29.99,8.0,ENE,3.5,-,N/A,,Scattered Clouds,60,2012-12-30 08:52:00
1:52 AM,48.9,45.0,86,29.99,8.0,Calm,Calm,-,N/A,,Scattered Clouds,0,2012-12-30 09:52:00
2:52 AM,48.9,45.0,86,29.99,8.0,Calm,Calm,-,N/A,,Mostly Cloudy,0,2012-12-30 10:52:00
3:52 AM,48.9,44.1,83,29.98,8.0,Calm,Calm,-,N/A,,Mostly Cloudy,0,2012-12-30 11:52:00
4:26 AM,50.0,44.6,82,29.98,8.0,North,4.6,-,0.02,Rain,Light Rain,10,2012-12-30 12:26:00
4:52 AM,51.1,45.0,80,29.97,7.0,East,3.5,-,0.07,,Mostly Cloudy,100,2012-12-30 12:52:00
5:52 AM,48.9,44.1,83,29.98,8.0,ENE,4.6,-,N/A,,Mostly Cloudy,70,2012-12-30 13:52:00
6:12 AM,50.0,44.6,82,29.99,7.0,NNE,9.2,-,0.00,Rain,Light Rain,30,2012-12-30 14:12:00
6:37 AM,50.0,44.6,82,29.98,8.0,ENE,4.6,-,0.01,,Mostly Cloudy,70,2012-12-30 14:37:00
6:52 AM,50.0,45.0,83,29.98,8.0,ESE,3.5,-,0.01,,Mostly Cloudy,120,2012-12-30 14:52:00
7:52 AM,50.0,45.0,83,29.99,10.0,NNE,3.5,-,N/A,,Scattered Clouds,20,2012-12-30 15:52:00
8:52 AM,53.1,48.0,83,30.01,10.0,Calm,Calm,-,N/A,,Scattered Clouds,0,2012-12-30 16:52:00
9:52 AM,55.0,48.9,80,30.02,9.0,Calm,Calm,-,N/A,,Scattered Clouds,0,2012-12-30 17:52:00
10:52 AM,57.0,46.9,69,30.00,9.0,South,3.5,-,N/A,,Mostly Cloudy,170,2012-12-30 18:52:00
11:29 AM,55.4,44.6,67,29.98,9.0,SW,5.8,-,0.00,Rain,Light Rain,220,2012-12-30 19:29:00
11:52 AM,55.9,45.0,67,29.97,9.0,SW,6.9,-,0.00,,Mostly Cloudy,230,2012-12-30 19:52:00
12:06 PM,53.6,44.6,72,29.97,9.0,SW,4.6,-,0.00,Rain-Thunderstorm,Thunderstorms and Rain,220,2012-12-30 20:06:00
12:26 PM,55.4,46.4,72,29.95,8.0,SSW,3.5,-,0.01,,Mostly Cloudy,200,2012-12-30 20:26:00
12:52 PM,57.0,45.0,64,29.94,10.0,SSW,4.6,-,0.01,,Mostly Cloudy,200,2012-12-30 20:52:00
1:52 PM,57.9,44.1,60,29.93,10.0,SSW,6.9,-,N/A,,Mostly Cloudy,200,2012-12-30 21:52:00
2:52 PM,55.9,44.1,64,29.92,10.0,SSW,3.5,-,N/A,,Mostly Cloudy,200,2012-12-30 22:52:00
3:52 PM,55.9,44.1,64,29.92,10.0,Calm,Calm,-,N/A,,Mostly Cloudy,0,2012-12-30 23:52:00
4:21 PM,55.4,42.8,63,29.92,10.0,NNW,18.4,25.3,0.00,Rain,Light Rain,330,2012-12-31 00:21:00
4:36 PM,53.6,41.0,62,29.93,8.0,NNW,16.1,-,0.00,Rain,Light Rain,340,2012-12-31 00:36:00
4:52 PM,52.0,41.0,66,29.93,10.0,NNW,8.1,-,0.00,Rain,Light Rain,330,2012-12-31 00:52:00
5:02 PM,53.6,41.0,62,29.93,10.0,NNW,4.6,-,0.00,,Mostly Cloudy,330,2012-12-31 01:02:00
5:52 PM,53.1,42.1,66,29.94,10.0,NNE,4.6,-,0.00,,Mostly Cloudy,20,2012-12-31 01:52:00
6:38 PM,53.6,42.8,67,29.98,10.0,North,13.8,-,0.00,Rain,Light Rain,350,2012-12-31 02:38:00
6:52 PM,52.0,39.9,63,29.98,6.0,North,5.8,20.7,0.01,Rain,Light Rain,350,2012-12-31 02:52:00
7:27 PM,51.8,41.0,67,29.98,10.0,Calm,Calm,-,0.00,,Mostly Cloudy,0,2012-12-31 03:27:00
7:52 PM,50.0,41.0,71,29.99,10.0,Calm,Calm,-,0.00,,Mostly Cloudy,0,2012-12-31 03:52:00
8:52 PM,48.9,41.0,74,30.01,10.0,Calm,Calm,-,N/A,,Scattered Clouds,0,2012-12-31 04:52:00
9:52 PM,48.0,41.0,77,30.04,9.0,East,3.5,-,N/A,,Scattered Clouds,90,2012-12-31 05:52:00
10:52 PM,46.9,41.0,80,30.06,10.0,East,4.6,-,N/A,,Partly Cloudy,90,2012-12-31 06:52:00
11:52 PM,46.0,41.0,83,30.07,8.0,ENE,3.5,-,N/A,,Clear,70,2012-12-31 07:52:00